This is the latest recevied weather packets stored in our database for station/object VR2OT-10. If no packets are shown the sender has not sent any weather packets the latest 10 day(s).
| Time | Temp. | Humidity | Pressure | Rain* | Wind** | Luminosity | Snow |
|---|---|---|---|---|---|---|---|
| 1777885338 | 23.33° C | 77% | 1013.8 hPa | - | 2.68 m/s, 135° | - | - |
| 1777883537 | 23.89° C | 74% | 1014.3 hPa | - | 3.13 m/s, 90° | - | - |
| 1777882637 | 23.89° C | 72% | 1014.3 hPa | - | 2.68 m/s, 45° | - | - |
| 1777881738 | 23.89° C | 72% | 1014.7 hPa | - | 3.13 m/s, 90° | - | - |
| 1777880837 | 23.89° C | 70% | 1014.8 hPa | - | 3.58 m/s, 135° | - | - |
| 1777879939 | 24.44° C | 69% | 1015.1 hPa | - | 2.68 m/s, 90° | - | - |
| 1777879038 | 23.89° C | 69% | 1015.2 hPa | - | 4.02 m/s, 135° | - | - |
| 1777878138 | 23.89° C | 69% | 1015.3 hPa | - | 4.47 m/s, 90° | - | - |
| 1777877238 | 23.89° C | 67% | 1015.5 hPa | - | 3.58 m/s, 90° | - | - |
| 1777876339 | 24.44° C | 64% | 1015.6 hPa | - | 4.92 m/s, 90° | - | - |
| 1777875437 | 24.44° C | 64% | 1015.6 hPa | - | 4.92 m/s, 135° | - | - |
| 1777874539 | 25° C | 62% | 1015.3 hPa | - | 4.92 m/s, 90° | - | - |
| 1777873638 | 25.56° C | 63% | 1015.3 hPa | - | 5.81 m/s, 90° | - | - |
| 1777872738 | 25.56° C | 59% | 1015.6 hPa | - | 4.02 m/s, 90° | - | - |
| 1777871838 | 25.56° C | 59% | 1015.7 hPa | - | 4.47 m/s, 90° | - | - |
| 1777870938 | 25.56° C | 64% | 1015.7 hPa | - | 2.68 m/s, 90° | - | - |
| 1777870037 | 26.11° C | 63% | 1015.7 hPa | - | 1.79 m/s, 90° | - | - |
| 1777869139 | 25.56° C | 66% | 1015.8 hPa | - | 1.79 m/s, 135° | - | - |
| 1777868238 | 25.56° C | 66% | 1015.8 hPa | - | 1.79 m/s, 135° | - | - |
| 1777867338 | 24.44° C | 68% | 1016.1 hPa | - | 1.34 m/s, 90° | - | - |
| 1777865539 | - | 66% | 1016 hPa | - | 2.68 m/s, 135° | - | - |
| 1777864638 | - | 66% | 1016.1 hPa | - | 0.45 m/s, 0° | - | - |
| 1777863738 | - | 66% | 1016.3 hPa | - | 4.92 m/s, 135° | - | - |
| 1777861937 | - | 69% | 1016.2 hPa | - | 4.92 m/s, 90° | - | - |
| 1777860150 | - | 67% | 1016.1 hPa | - | 1.34 m/s, 135° | - | - |
* Rain since midnight (hover to see other rain measurements)
** Current wind speed in m/s (hover to see current wind gust speed)